Wind_Speed
16 15 15 16 15 15 15 15 15 15 15 15 15 16 15 14 14 14 13 13 12 11 11 11 11 10 9 10 10 9 9 8 8 7 7 6 5 5 4 3 3 3 4
18 17 17 17 17 17 16 16 16 16 16 16 16 17 17 16 15 15 14 14 14 13 13 12 12 11 11 11 10 10 10 10 9 9 8 8 7 6 5 4 4 4 4
20 19 18 18 18 18 18 17 17 17 17 17 18 18 18 17 16 16 15 15 15 14 14 14 13 13 12 12 12 12 11 12 11 10 10 9 9 8 7 6 6 5 5
21 20 20 20 20 20 19 19 19 19 19 19 19 19 19 18 18 17 17 16 16 16 15 15 15 14 14 14 14 14 13 13 13 12 12 11 10 10 9 8 8 7 7
22 22 22 21 21 21 21 21 20 20 20 20 20 21 20 20 19 19 18 18 18 17 17 16 16 16 15 15 15 15 14 14 15 14 13 13 12 12 11 11 10 10 9
23 23 23 22 22 22 22 22 22 22 22 22 22 22 21 21 21 20 20 20 19 19 18 18 18 18 17 17 17 16 16 16 16 16 15 15 14 14 13 13 12 12 11
24 23 23 23 22 22 23 23 22 22 23 23 24 24 23 23 23 22 21 21 21 21 20 20 19 19 19 19 18 18 18 17 17 17 17 17 16 16 15 15 14 14 13
25 25 25 24 24 23 23 24 24 23 24 24 24 25 25 24 24 24 23 22 22 22 22 21 21 21 21 21 20 20 19 19 18 18 18 18 18 17 17 16 16 16 15
26 26 26 26 26 26 25 25 25 25 25 25 26 25 26 26 25 25 24 24 23 23 23 23 22 22 22 22 22 21 21 21 20 19 19 19 19 19 18 18 18 18 17
27 27 27 27 27 27 27 27 27 26 26 26 27 27 27 27 27 26 26 25 25 24 24 24 23 23 23 23 23 23 23 22 21 21 21 21 21 20 20 20 19 19 19
27 27 27 28 28 29 29 28 28 27 27 27 27 28 28 28 28 28 28 27 26 26 26 25 25 25 24 24 24 24 24 23 22 22 23 22 22 22 22 21 21 21 21
28 28 28 28 28 29 29 29 29 28 28 27 27 27 28 28 28 28 28 28 28 27 27 27 26 26 26 26 26 26 26 25 25 24 24 24 24 24 24 23 23 23 22
29 29 29 29 29 30 29 29 29 29 29 29 28 27 27 27 28 28 28 29 29 29 28 28 28 27 27 27 27 27 27 27 26 26 25 25 26 26 26 26 26 25 25
30 30 30 30 30 31 30 30 29 29 30 30 29 28 28 27 27 28 28 28 29 29 29 29 29 28 28 28 28 29 29 28 28 28 27 27 27 27 27 27 27 27 27
31 31 31 31 32 32 32 32 31 30 30 30 30 30 30 29 29 29 29 29 29 29 29 30 30 30 29 29 29 29 29 29 29 29 29 28 28 28 28 28 29 28 28
33 33 33 33 33 33 33 32 32 32 31 32 31 31 31 31 31 31 31 31 30 30 30 30 30 30 30 30 31 31 31 31 31 30 30 30 30 30 31 31 31 31 31
34 34 35 35 34 34 34 33 33 33 32 32 33 33 33 33 33 33 33 33 32 31 31 31 31 31 31 30 31 32 32 33 33 33 32 33 32 32 32 32 32 32 32
35 36 36 36 35 35 35 35 35 34 34 33 33 34 34 34 34 34 34 34 34 33 33 32 32 32 32 32 32 32 33 33 34 33 33 33 33 34 33 33 33 34 34
36 37 37 37 37 37 36 35 35 35 35 35 35 35 35 34 34 34 35 35 35 35 35 34 34 33 33 33 33 33 33 33 34 34 34 34 34 34 34 34 35 35 35
37 38 38 38 38 38 37 36 35 36 36 36 36 36 36 35 35 35 35 36 36 36 35 35 35 35 34 34 34 34 35 35 34 34 34 35 35 35 35 35 35 36 36
37 38 39 40 40 39 39 38 37 37 37 37 37 37 37 37 36 36 36 37 36 36 36 36 36 36 36 36 36 36 36 36 35 35 35 36 36 36 36 36 37 37 37
38 39 39 40 41 40 39 39 39 38 37 37 37 37 37 37 37 37 37 38 37 37 37 37 37 37 37 38 38 37 38 37 37 37 37 37 38 38 38 37 37 38 38
39 39 40 40 41 41 40 40 40 39 38 37 37 37 37 38 37 37 37 38 38 37 38 38 38 38 38 38 38 38 38 38 38 38 39 39 39 40 40 40 40 40 40
39 39 40 40 41 41 41 41 41 40 39 37 36 37 38 38 37 38 38 38 38 39 39 39 39 39 38 39 39 39 39 39 39 39 39 40 41 41 41 41 41 42 42
39 39 39 40 41 41 41 42 41 41 40 39 38 38 38 38 38 38 38 38 39 39 39 39 39 40 40 40 40 40 40 41 40 40 40 40 41 41 42 42 42 42 42
39 39 39 40 41 41 41 42 42 42 42 41 40 40 39 39 39 39 39 39 39 39 39 40 40 40 40 41 41 42 41 41 41 42 41 41 42 42 43 43 44 43 43
Wind_Direction
245 244 242 241 239 239 238 238 237 237 235 232 228 225 223 221 220 220 218 216 215 216 217 218 217 218 216 216 213 210 210 210 210 211 210 208 208 211 214 218 216 211 204
245 244 244 242 241 241 241 240 238 238 236 232 229 227 225 224 224 223 223 222 220 220 221 222 222 223 222 220 216 217 219 219 218 218 218 218 218 218 221 222 223 220 210
244 244 245 244 243 242 241 240 239 238 236 233 230 228 227 227 226 225 225 225 224 224 224 225 226 227 227 225 224 224 225 224 224 225 225 224 225 225 226 227 226 225 222
245 245 246 246 245 243 242 241 241 239 237 234 231 228 229 229 229 228 228 228 227 228 228 228 229 229 229 229 228 228 228 228 228 229 230 231 231 232 231 232 233 231 232
246 246 246 246 245 243 243 242 241 240 238 235 233 231 231 231 232 231 231 231 231 231 231 231 231 230 230 231 231 231 231 231 231 231 233 234 235 236 236 236 236 236 238
246 246 245 244 244 244 243 242 242 241 239 237 235 234 234 233 233 235 234 234 234 233 233 234 234 232 233 233 234 235 234 234 233 234 234 235 237 238 238 239 239 239 241
246 245 244 243 244 243 242 242 243 242 240 238 237 236 237 236 236 237 237 235 236 236 236 236 237 236 236 237 237 237 237 238 236 235 236 238 239 239 240 241 241 241 242
247 246 246 245 244 244 244 244 243 243 242 240 239 238 239 238 238 238 238 238 237 236 237 237 238 238 238 238 238 238 238 240 239 238 238 240 240 241 241 242 243 243 243
248 247 246 245 245 244 244 244 245 244 243 242 240 240 240 239 238 239 239 240 239 238 238 239 240 239 238 239 239 239 240 241 241 242 242 243 242 243 244 244 244 245 246
249 248 247 246 245 245 245 245 245 245 244 243 242 241 243 241 239 239 241 241 241 240 239 240 241 241 240 240 240 241 241 242 243 243 245 245 245 245 246 247 246 247 248
249 248 247 246 246 246 246 246 245 245 245 244 243 243 243 243 242 242 242 243 242 242 242 243 244 243 243 242 242 242 242 243 243 245 246 246 247 247 247 248 248 249 250
249 248 247 246 246 246 246 247 247 246 246 245 245 245 244 244 244 244 244 243 243 243 244 245 246 245 245 244 245 245 245 244 244 245 247 248 249 248 248 249 250 251 253
249 248 247 246 246 247 247 248 248 247 247 246 245 245 245 246 245 244 244 243 242 243 244 245 245 246 247 247 246 246 246 246 246 247 248 249 250 249 249 250 251 252 254
249 249 248 247 246 246 247 249 249 249 248 247 245 245 245 246 247 247 246 245 245 244 244 244 245 246 248 248 247 247 247 247 247 248 250 250 250 250 250 251 252 254 255
249 248 248 248 248 248 248 249 249 249 249 248 247 246 246 247 247 248 247 246 246 246 246 245 246 247 249 250 250 250 249 249 249 250 251 251 251 251 251 252 253 254 256
249 248 248 247 247 248 249 249 249 249 249 248 247 247 247 247 248 248 248 247 246 246 247 247 247 247 249 250 250 250 251 251 251 251 252 252 253 253 253 253 253 254 255
250 248 247 247 247 247 248 248 248 249 249 249 247 247 247 248 248 248 248 248 247 247 247 248 247 248 249 249 250 250 251 252 253 253 254 254 254 254 254 254 254 255 256
250 248 248 248 247 247 248 249 249 249 248 248 248 248 248 249 250 250 249 248 247 247 247 248 249 249 249 250 250 250 251 253 254 254 255 255 256 255 255 255 256 257 258
250 248 248 248 247 248 249 250 249 248 248 247 248 248 248 248 250 250 249 248 247 247 247 248 250 250 250 251 251 251 252 253 254 254 255 255 256 256 256 257 258 258 259
250 248 248 247 247 247 247 248 247 248 248 247 248 248 247 248 249 250 249 248 247 247 247 248 249 250 250 251 252 252 253 254 255 255 255 256 255 255 256 257 259 259 260
250 249 247 247 246 247 246 246 247 248 248 248 247 248 248 248 249 250 250 249 247 247 248 248 249 250 250 251 252 253 253 254 255 255 256 256 256 256 257 258 260 261 261
251 249 249 247 246 246 246 245 246 247 248 247 246 247 248 249 249 250 250 249 248 248 248 249 250 251 251 252 253 253 254 255 256 256 256 257 257 257 258 259 260 261 262
251 250 249 248 246 246 245 245 246 248 249 249 247 248 248 249 249 250 250 249 248 248 248 249 250 251 252 253 253 255 256 257 258 257 258 258 259 259 259 259 260 261 263
251 250 249 248 247 246 245 245 246 248 249 249 248 248 248 249 250 250 250 250 249 249 249 250 251 252 253 254 255 256 257 258 259 260 260 260 260 260 261 260 261 263 264
250 250 250 248 246 245 245 245 246 247 248 247 248 248 248 248 249 250 250 251 250 250 250 251 252 253 254 256 256 257 259 260 260 260 261 262 262 262 262 262 262 264 265
251 250 250 248 246 245 245 245 246 247 248 248 248 249 250 249 250 251 251 251 250 250 251 252 254 255 256 257 257 258 260 260 260 261 261 262 262 263 263 264 264 265 267
Height
5841 5842 5842 5843 5844 5844 5845 5846 5846 5847 5848 5849 5849 5850 5851 5852 5853 5854 5854 5855 5856 5857 5857 5858 5859 5860 5860 5861 5862 5862 5863 5864 5865 5865 5866 5867 5867 5867 5868 5868 5868 5868 5868
5838 5839 5839 5840 5841 5842 5842 5843 5844 5844 5845 5846 5847 5848 5849 5850 5851 5852 5853 5853 5854 5855 5856 5856 5857 5858 5859 5860 5860 5861 5862 5863 5864 5864 5865 5866 5866 5867 5867 5867 5867 5868 5868
5835 5836 5836 5837 5838 5838 5839 5840 5841 5841 5842 5843 5844 5845 5846 5847 5848 5849 5850 5851 5852 5853 5854 5854 5855 5856 5857 5858 5859 5860 5860 5861 5862 5863 5864 5864 5865 5865 5866 5866 5867 5867 5867
5831 5832 5833 5834 5834 5835 5836 5837 5838 5838 5839 5840 5841 5843 5844 5845 5846 5847 5848 5849 5850 5850 5851 5852 5853 5854 5855 5856 5857 5857 5858 5859 5860 5861 5862 5863 5863 5864 5865 5865 5866 5866 5866
5827 5828 5829 5830 5831 5831 5832 5833 5834 5835 5836 5837 5838 5839 5841 5842 5843 5844 5845 5846 5847 5848 5849 5850 5851 5852 5853 5853 5854 5855 5856 5857 5858 5859 5860 5860 5861 5862 5863 5863 5864 5865 5865
5823 5824 5825 5826 5827 5827 5828 5829 5830 5831 5832 5834 5835 5836 5837 5838 5840 5841 5842 5843 5844 5845 5846 5847 5848 5849 5850 5851 5852 5853 5853 5854 5855 5856 5857 5858 5859 5860 5861 5861 5862 5863 5863
5818 5819 5820 5821 5822 5823 5824 5825 5826 5827 5829 5830 5831 5832 5833 5835 5836 5837 5838 5839 5840 5842 5842 5843 5844 5846 5846 5847 5849 5850 5850 5851 5852 5853 5854 5855 5856 5857 5858 5859 5860 5861 5861
5813 5814 5815 5816 5818 5819 5820 5821 5822 5823 5824 5826 5827 5828 5829 5831 5832 5833 5834 5835 5837 5838 5838 5840 5841 5842 5843 5844 5845 5846 5847 5848 5849 5850 5851 5852 5853 5854 5855 5856 5857 5858 5859
5808 5809 5810 5811 5812 5813 5815 5816 5817 5818 5820 5821 5822 5823 5825 5826 5828 5829 5830 5831 5832 5833 5834 5836 5837 5838 5839 5840 5841 5842 5844 5845 5846 5847 5848 5849 5850 5851 5852 5853 5854 5855 5856
5802 5803 5805 5806 5807 5808 5809 5810 5812 5813 5814 5816 5817 5818 5820 5821 5822 5824 5825 5826 5828 5829 5830 5831 5832 5834 5835 5836 5837 5838 5840 5841 5842 5843 5844 5845 5846 5848 5849 5850 5851 5851 5852
5796 5797 5799 5800 5801 5802 5803 5805 5806 5807 5808 5810 5811 5813 5814 5815 5817 5818 5820 5821 5823 5824 5825 5827 5828 5829 5830 5831 5833 5834 5835 5836 5838 5839 5840 5841 5842 5844 5845 5846 5847 5848 5849
5790 5791 5793 5794 5795 5796 5798 5799 5800 5801 5803 5804 5805 5807 5808 5810 5811 5813 5814 5816 5817 5819 5820 5822 5823 5824 5825 5826 5827 5829 5830 5832 5833 5834 5836 5837 5838 5839 5840 5841 5842 5843 5844
5784 5785 5786 5787 5789 5790 5791 5793 5794 5795 5797 5798 5799 5801 5803 5804 5805 5807 5808 5810 5812 5813 5815 5816 5817 5819 5820 5821 5822 5824 5825 5826 5828 5829 5830 5832 5833 5834 5835 5837 5838 5839 5840
5777 5778 5779 5781 5782 5783 5785 5786 5787 5789 5790 5792 5793 5795 5796 5798 5799 5801 5803 5804 5806 5808 5809 5810 5812 5813 5814 5815 5817 5818 5819 5821 5822 5824 5825 5826 5827 5829 5830 5831 5832 5834 5835
5769 5771 5772 5773 5775 5777 5778 5779 5780 5782 5783 5785 5786 5788 5789 5791 5793 5795 5796 5798 5800 5801 5803 5804 5806 5807 5809 5810 5811 5812 5813 5815 5817 5818 5819 5820 5822 5823 5824 5826 5827 5828 5829
5761 5763 5764 5766 5767 5769 5771 5772 5773 5775 5776 5777 5779 5781 5782 5784 5786 5788 5790 5791 5793 5795 5797 5798 5800 5801 5802 5803 5805 5806 5807 5809 5810 5812 5813 5814 5816 5817 5818 5820 5821 5822 5823
5753 5754 5756 5758 5759 5761 5762 5764 5765 5767 5768 5770 5771 5773 5775 5777 5779 5781 5782 5784 5786 5788 5790 5792 5793 5794 5796 5797 5798 5799 5801 5802 5804 5805 5807 5808 5809 5811 5812 5813 5815 5816 5817
5743 5745 5747 5749 5751 5752 5754 5755 5756 5758 5760 5762 5763 5765 5767 5769 5771 5773 5775 5777 5779 5781 5783 5785 5786 5787 5789 5790 5791 5793 5794 5795 5797 5798 5800 5801 5803 5804 5805 5807 5808 5809 5810
5734 5736 5738 5739 5741 5743 5744 5746 5747 5749 5751 5753 5755 5757 5759 5761 5763 5765 5767 5769 5771 5773 5775 5777 5779 5780 5782 5783 5785 5786 5787 5788 5790 5791 5793 5794 5795 5797 5798 5800 5801 5802 5803
5724 5726 5728 5730 5732 5733 5735 5737 5738 5740 5742 5745 5747 5749 5751 5753 5755 5757 5759 5761 5763 5765 5767 5769 5771 5772 5774 5776 5777 5779 5780 5782 5783 5784 5785 5787 5788 5790 5791 5792 5793 5794 5795
5714 5715 5717 5720 5722 5724 5726 5728 5730 5732 5734 5736 5738 5740 5742 5744 5746 5748 5750 5752 5755 5757 5759 5761 5763 5765 5766 5768 5770 5771 5773 5774 5776 5777 5778 5779 5781 5782 5783 5784 5785 5786 5787
5704 5705 5707 5709 5712 5714 5716 5719 5721 5723 5724 5726 5728 5731 5733 5735 5737 5739 5742 5744 5746 5748 5751 5753 5755 5756 5758 5760 5762 5763 5765 5767 5768 5769 5770 5771 5773 5774 5775 5776 5777 5778 5779
5693 5695 5697 5699 5701 5704 5706 5709 5711 5713 5715 5717 5720 5722 5724 5726 5728 5730 5733 5735 5737 5740 5742 5744 5746 5748 5750 5752 5753 5755 5757 5758 5760 5761 5762 5763 5764 5765 5766 5767 5768 5769 5770
5682 5684 5686 5688 5691 5693 5696 5699 5702 5704 5707 5709 5711 5713 5715 5717 5719 5721 5723 5726 5728 5731 5733 5735 5737 5739 5741 5743 5744 5746 5748 5749 5751 5752 5753 5754 5755 5756 5757 5758 5759 5759 5760
5672 5673 5675 5677 5680 5683 5686 5689 5692 5694 5697 5699 5702 5704 5706 5708 5710 5712 5714 5717 5719 5721 5724 5726 5728 5730 5732 5733 5735 5736 5738 5739 5741 5742 5744 5745 5745 5746 5747 5748 5749 5749 5750
5661 5663 5665 5667 5670 5673 5676 5679 5681 5684 5687 5689 5692 5694 5696 5698 5701 5703 5705 5707 5710 5712 5714 5716 5718 5721 5722 5724 5725 5727 5728 5730 5731 5732 5734 5735 5735 5736 5736 5737 5738 5738 5739